,,,PA_Meas_PMT16A,,PR_Meas_QMR101_102,,RH_Meas_QMH101,,SR_Meas_QMS101,,TA_Meas_QMH101,,GenWind,,GenWind,
date,time,status,PA,status,PR,status,RH,status,SR,status,TA,status,DirAvg,status,SpdAvg,
2012-11-14, 00:00:04,VALID,1009.91,VALID,0,VALID,104,VALID,0.784785,VALID,23.7507,VALID,187,VALID,0.4125,
2012-11-14, 00:01:04,VALID,1009.88,VALID,0,VALID,104,VALID,0.56056,VALID,23.7525,VALID,186,VALID,0.666797,
2012-11-14, 00:02:04,VALID,1009.87,VALID,0,VALID,104,VALID,0.56056,VALID,23.772,VALID,172,VALID,0.414063,
2012-11-14, 00:03:04,VALID,1009.87,VALID,0,VALID,104,VALID,0.56056,VALID,23.7525,VALID,172,VALID,0.308984,
2012-11-14, 00:04:04,VALID,1009.82,VALID,0,VALID,104,VALID,0.56056,VALID,23.7932,VALID,166,VALID,0.383203,
2012-11-14, 00:05:04,VALID,1009.81,VALID,0,VALID,104,VALID,0.56056,VALID,23.7525,VALID,154,VALID,0.660937,
2012-11-14, 00:06:04,VALID,1009.82,VALID,0,VALID,104,VALID,0.56056,VALID,23.7738,VALID,152,VALID,0.86875,
2012-11-14, 00:07:04,VALID,1009.81,VALID,0,VALID,104,VALID,0.56056,VALID,23.733,VALID,149,VALID,0.552344,
2012-11-14, 00:08:04,VALID,1009.78,VALID,0,VALID,104,VALID,0.56056,VALID,23.7525,VALID,149,VALID,0.634375,
2012-11-14, 00:09:04,VALID,1009.77,VALID,0,VALID,104,VALID,0.56056,VALID,23.772,VALID,142,VALID,0.496875,
2012-11-14, 00:10:04,VALID,1009.75,VALID,0,VALID,104,VALID,0.56056,VALID,23.7932,VALID,134,VALID,0.594922,
2012-11-14, 00:11:04,VALID,1009.75,VALID,0,VALID,104,VALID,0.56056,VALID,23.7932,VALID,134,VALID,0.380469,
2012-11-14, 00:12:04,VALID,1009.74,VALID,0,VALID,104,VALID,0.672673,VALID,23.7914,VALID,134,VALID,0.582812,
2012-11-14, 00:13:04,VALID,1009.71,VALID,0,VALID,104,VALID,0.56056,VALID,23.7914,VALID,135,VALID,0.921484,
2012-11-14, 00:14:04,VALID,1009.71,VALID,0,VALID,104,VALID,0.672673,VALID,23.7914,VALID,136,VALID,0.563281,
2012-11-14, 00:15:04,VALID,1009.7,VALID,0,VALID,104,VALID,0.672673,VALID,23.7914,VALID,133,VALID,0.427734,
2012-11-14, 00:16:04,VALID,1009.69,VALID,0.5,VALID,104,VALID,0.784785,VALID,23.8091,VALID,133,VALID,0.642187,
2012-11-14, 00:17:04,VALID,1009.66,VALID,0,VALID,104,VALID,0.784785,VALID,23.8286,VALID,133,VALID,0.392578,
2012-11-14, 00:18:04,VALID,1009.65,VALID,0,VALID,104,VALID,0.672673,VALID,23.8304,VALID,133,VALID,0.0386719,
2012-11-14, 00:19:04,VALID,1009.66,VALID,0,VALID,104,VALID,0.784785,VALID,23.8481,VALID,133,VALID,0.262891,
2012-11-14, 00:20:04,VALID,1009.61,VALID,0,VALID,104,VALID,0.784785,VALID,23.8694,VALID,133,VALID,0.183203,
2012-11-14, 00:21:04,VALID,1009.6,VALID,0,VALID,104,VALID,0.784785,VALID,23.8286,VALID,146,VALID,0.5125,
2012-11-14, 00:22:04,VALID,1009.55,VALID,0,VALID,104,VALID,0.672673,VALID,23.8286,VALID,163,VALID,0.747266,
2012-11-14, 00:23:04,VALID,1009.53,VALID,0,VALID,104,VALID,0.672673,VALID,23.8499,VALID,158,VALID,0.794141,
2012-11-14, 00:24:04,VALID,1009.51,VALID,0,VALID,104,VALID,0.672673,VALID,23.8481,VALID,166,VALID,0.798047,
2012-11-14, 00:25:04,VALID,1009.48,VALID,0,VALID,104,VALID,0.672673,VALID,23.8286,VALID,169,VALID,0.584766,
2012-11-14, 00:26:04,VALID,1009.48,VALID,0,VALID,104,VALID,0.672673,VALID,23.8499,VALID,169,VALID,0.203906,
2012-11-14, 00:27:04,VALID,1009.46,VALID,0,VALID,104,VALID,0.672673,VALID,23.8694,VALID,164,VALID,0.467969,
2012-11-14, 00:28:04,VALID,1009.44,VALID,0,VALID,104,VALID,0.672673,VALID,23.8676,VALID,154,VALID,0.459766,
2012-11-14, 00:29:04,VALID,1009.4,VALID,0,VALID,104,VALID,0.672673,VALID,23.8481,VALID,154,VALID,0.516797,
2012-11-14, 00:30:04,VALID,1009.4,VALID,0,VALID,104,VALID,0.784785,VALID,23.9084,VALID,154,VALID,0.468359,
2012-11-14, 00:31:04,VALID,1009.35,VALID,0,VALID,104,VALID,0.56056,VALID,23.9102,VALID,154,VALID,0.0496094,
2012-11-14, 00:32:04,VALID,1009.34,VALID,0,VALID,104,VALID,0.56056,VALID,23.9297,VALID,154,VALID,0.0476562,
2012-11-14, 00:33:04,VALID,1009.32,VALID,0,VALID,104,VALID,0.56056,VALID,23.9102,VALID,154,VALID,0.250781,
2012-11-14, 00:34:04,VALID,1009.32,VALID,0,VALID,104,VALID,0.56056,VALID,23.9102,VALID,154,VALID,0.00195313,
2012-11-14, 00:35:04,VALID,1009.28,VALID,0,VALID,104,VALID,0.56056,VALID,23.8889,VALID,154,VALID,0.505859,
2012-11-14, 00:36:04,VALID,1009.29,VALID,0,VALID,104,VALID,0.56056,VALID,23.9084,VALID,164,VALID,0.596484,
2012-11-14, 00:37:04,VALID,1009.26,VALID,0,VALID,104,VALID,0.672673,VALID,23.9278,VALID,164,VALID,0.260547,
2012-11-14, 00:38:04,VALID,1009.24,VALID,0,VALID,104,VALID,0.56056,VALID,23.9278,VALID,174,VALID,0.457422,
2012-11-14, 00:39:04,VALID,1009.25,VALID,0,VALID,104,VALID,0.56056,VALID,23.9491,VALID,174,VALID,0.282031,
2012-11-14, 00:40:04,VALID,1009.22,VALID,0,VALID,104,VALID,0.56056,VALID,23.9686,VALID,179,VALID,0.678906,
2012-11-14, 00:41:04,VALID,1009.18,VALID,0,VALID,104,VALID,0.56056,VALID,23.9278,VALID,176,VALID,0.464844,
2012-11-14, 00:42:04,VALID,1009.17,VALID,0,VALID,104,VALID,0.672673,VALID,23.9668,VALID,177,VALID,0.405469,
2012-11-14, 00:43:04,VALID,1009.14,VALID,0,VALID,104,VALID,0.56056,VALID,23.9881,VALID,177,VALID,0.160547,
2012-11-14, 00:44:04,VALID,1009.14,VALID,0,VALID,104,VALID,0.672673,VALID,23.9668,VALID,173,VALID,0.583594,
2012-11-14, 00:45:04,VALID,1009.13,VALID,0,VALID,104,VALID,0.56056,VALID,23.9668,VALID,173,VALID,0.240625,
2012-11-14, 00:46:04,VALID,1009.1,VALID,0,VALID,104,VALID,0.672673,VALID,23.9845,VALID,173,VALID,0.225391,
2012-11-14, 00:47:04,VALID,1009.04,VALID,0,VALID,104,VALID,0.672673,VALID,23.965,VALID,173,VALID,0.354688,
2012-11-14, 00:48:04,VALID,1009.06,VALID,0,VALID,104,VALID,0.784785,VALID,23.9845,VALID,173,VALID,0.0488281,
2012-11-14, 00:49:04,VALID,1009.03,VALID,0.5,VALID,104,VALID,0.672673,VALID,23.9863,VALID,173,VALID,0.251563,
2012-11-14, 00:50:04,VALID,1009.01,VALID,0,VALID,104,VALID,0.784785,VALID,23.9845,VALID,173,VALID,0.00585938,
2012-11-14, 00:51:04,VALID,1008.98,VALID,0,VALID,104,VALID,0.672673,VALID,23.965,VALID,174,VALID,0.402734,
2012-11-14, 00:52:04,VALID,1008.95,VALID,0,VALID,104,VALID,0.672673,VALID,24.004,VALID,174,VALID,0.00195313,
2012-11-14, 00:53:04,VALID,1008.91,VALID,0,VALID,104,VALID,0.672673,VALID,24.0253,VALID,174,VALID,0,
2012-11-14, 00:54:04,VALID,1008.86,VALID,0,VALID,104,VALID,0.672673,VALID,24.0253,VALID,174,VALID,0,
2012-11-14, 00:55:04,VALID,1008.84,VALID,0,VALID,104,VALID,0.672673,VALID,24.004,VALID,174,VALID,0,
2012-11-14, 00:56:04,VALID,1008.84,VALID,0,VALID,104,VALID,0.784785,VALID,24.0253,VALID,174,VALID,0,
2012-11-14, 00:57:04,VALID,1008.86,VALID,0,VALID,104,VALID,0.784785,VALID,24.004,VALID,174,VALID,0.163281,
2012-11-14, 00:58:04,VALID,1008.83,VALID,0,VALID,104,VALID,0.672673,VALID,24.0235,VALID,174,VALID,0.0121094,
2012-11-14, 00:59:04,VALID,1008.84,VALID,0,VALID,104,VALID,0.672673,VALID,24.0253,VALID,174,VALID,0,
2012-11-14, 01:00:04,VALID,1008.86,VALID,0,VALID,104,VALID,0.784785,VALID,24.0235,VALID,174,VALID,0,
2012-11-14, 01:01:04,VALID,1008.84,VALID,0,VALID,104,VALID,0.672673,VALID,24.004,VALID,174,VALID,0,
2012-11-14, 01:02:04,VALID,1008.86,VALID,0,VALID,104,VALID,0.672673,VALID,24.0253,VALID,174,VALID,0.00742187,
2012-11-14, 01:03:04,VALID,1008.85,VALID,0,VALID,104,VALID,0.784785,VALID,24.0235,VALID,174,VALID,0.168359,
2012-11-14, 01:04:04,VALID,1008.86,VALID,0,VALID,104,VALID,0.784785,VALID,24.004,VALID,174,VALID,0.474609,
2012-11-14, 01:05:04,VALID,1008.85,VALID,0,VALID,104,VALID,0.784785,VALID,24.004,VALID,174,VALID,0.376563,
2012-11-14, 01:06:04,VALID,1008.86,VALID,0,VALID,104,VALID,0.784785,VALID,24.0235,VALID,174,VALID,0.434766,
2012-11-14, 01:07:04,VALID,1008.83,VALID,0,VALID,104,VALID,0.784785,VALID,24.0235,VALID,174,VALID,0.4375,
2012-11-14, 01:08:04,VALID,1008.84,VALID,0,VALID,104,VALID,0.784785,VALID,24.0235,VALID,174,VALID,0.519531,
2012-11-14, 01:09:04,VALID,1008.84,VALID,0,VALID,104,VALID,0.672673,VALID,23.9845,VALID,174,VALID,0.406641,
2012-11-14, 01:10:04,VALID,1008.85,VALID,0,VALID,104,VALID,0.672673,VALID,24.004,VALID,174,VALID,0.385938,
2012-11-14, 01:11:04,VALID,1008.78,VALID,0,VALID,104,VALID,0.784785,VALID,24.004,VALID,174,VALID,0.408984,
2012-11-14, 01:12:04,VALID,1008.79,VALID,0,VALID,104,VALID,0.784785,VALID,24.004,VALID,174,VALID,0.176953,
2012-11-14, 01:13:04,VALID,1008.76,VALID,0,VALID,104,VALID,0.784785,VALID,23.9845,VALID,174,VALID,0.900781,
2012-11-14, 01:14:04,VALID,1008.71,VALID,0,VALID,104,VALID,0.784785,VALID,24.004,VALID,174,VALID,0.582031,
2012-11-14, 01:15:04,VALID,1008.66,VALID,0,VALID,104,VALID,0.784785,VALID,23.9845,VALID,173,VALID,0.486328,
2012-11-14, 01:16:04,VALID,1008.67,VALID,0,VALID,104,VALID,0.784785,VALID,23.9845,VALID,162,VALID,0.490625,
2012-11-14, 01:17:04,VALID,1008.68,VALID,0,VALID,104,VALID,0.784785,VALID,24.004,VALID,164,VALID,0.598047,
2012-11-14, 01:18:04,VALID,1008.68,VALID,0.5,VALID,104,VALID,0.784785,VALID,23.9845,VALID,199,VALID,0.636719,
2012-11-14, 01:19:04,VALID,1008.67,VALID,0,VALID,104,VALID,0.784785,VALID,24.004,VALID,203,VALID,0.333984,
2012-11-14, 01:20:04,VALID,1008.75,VALID,0,VALID,104,VALID,0.896897,VALID,24.0235,VALID,206,VALID,0.736719,
2012-11-14, 01:21:04,VALID,1008.78,VALID,0,VALID,104,VALID,0.784785,VALID,24.004,VALID,198,VALID,0.535156,
2012-11-14, 01:22:04,VALID,1008.76,VALID,0,VALID,104,VALID,0.784785,VALID,24.004,VALID,197,VALID,1.01797,
2012-11-14, 01:23:04,VALID,1008.78,VALID,0,VALID,104,VALID,0.784785,VALID,23.9845,VALID,222,VALID,1.18281,
2012-11-14, 01:24:04,VALID,1008.77,VALID,0,VALID,104,VALID,0.896897,VALID,24.0235,VALID,210,VALID,0.420703,
2012-11-14, 01:25:04,VALID,1008.77,VALID,0,VALID,104,VALID,0.896897,VALID,24.0429,VALID,205,VALID,0.490234,
2012-11-14, 01:26:04,VALID,1008.76,VALID,0,VALID,104,VALID,0.896897,VALID,24.0235,VALID,206,VALID,1.39844,
2012-11-14, 01:27:04,VALID,1008.77,VALID,0,VALID,104,VALID,0.896897,VALID,24.004,VALID,209,VALID,1.41172,
2012-11-14, 01:28:04,VALID,1008.76,VALID,0,VALID,104,VALID,0.896897,VALID,24.0235,VALID,200,VALID,0.767187,
2012-11-14, 01:29:04,VALID,1008.75,VALID,0,VALID,104,VALID,0.896897,VALID,24.0429,VALID,224,VALID,1.375,
2012-11-14, 01:30:04,VALID,1008.75,VALID,0,VALID,104,VALID,0.896897,VALID,24.0429,VALID,225,VALID,1.24453,
2012-11-14, 01:31:04,VALID,1008.76,VALID,0,VALID,104,VALID,0.896897,VALID,24.0429,VALID,217,VALID,1.38672,
2012-11-14, 01:32:04,VALID,1008.76,VALID,0,VALID,104,VALID,0.896897,VALID,24.0429,VALID,220,VALID,1.33672,
2012-11-14, 01:33:04,VALID,1008.77,VALID,0,VALID,104,VALID,0.896897,VALID,24.0624,VALID,203,VALID,0.797656,
2012-11-14, 01:34:04,VALID,1008.78,VALID,0,VALID,104,VALID,0.896897,VALID,24.0819,VALID,196,VALID,1.19687,
2012-11-14, 01:35:04,VALID,1008.73,VALID,0,VALID,104,VALID,0.896897,VALID,24.0819,VALID,215,VALID,1.07617,
2012-11-14, 01:36:04,VALID,1008.74,VALID,0,VALID,104,VALID,0.896897,VALID,24.0624,VALID,195,VALID,0.686719,
2012-11-14, 01:37:04,VALID,1008.72,VALID,0,VALID,104,VALID,0.896897,VALID,24.0411,VALID,213,VALID,1.02695,
2012-11-14, 01:38:04,VALID,1008.69,VALID,0,VALID,104,VALID,1.00901,VALID,24.0624,VALID,211,VALID,1.40039,
2012-11-14, 01:39:04,VALID,1008.63,VALID,0,VALID,104,VALID,0.896897,VALID,24.0624,VALID,207,VALID,1.72578,
2012-11-14, 01:40:04,VALID,1008.62,VALID,0,VALID,104,VALID,1.00901,VALID,24.0235,VALID,173,VALID,1.34258,
2012-11-14, 01:41:04,VALID,1008.6,VALID,0,VALID,104,VALID,0.896897,VALID,24.0429,VALID,191,VALID,1.00625,
2012-11-14, 01:42:04,VALID,1008.6,VALID,0,VALID,104,VALID,0.896897,VALID,24.0235,VALID,226,VALID,0.877344,
2012-11-14, 01:43:04,VALID,1008.57,VALID,0,VALID,104,VALID,0.896897,VALID,24.004,VALID,213,VALID,0.967578,
2012-11-14, 01:44:04,VALID,1008.54,VALID,0,VALID,104,VALID,0.896897,VALID,24.0235,VALID,197,VALID,1.63633,
2012-11-14, 01:45:04,VALID,1008.53,VALID,0,VALID,104,VALID,0.896897,VALID,24.0235,VALID,216,VALID,0.682813,
2012-11-14, 01:46:04,VALID,1008.54,VALID,0,VALID,104,VALID,0.896897,VALID,24.004,VALID,207,VALID,0.459766,
2012-11-14, 01:47:05,VALID,1008.48,VALID,0.5,VALID,104,VALID,0.896897,VALID,23.9827,VALID,192,VALID,0.83125,
2012-11-14, 01:48:05,VALID,1008.48,VALID,0,VALID,104,VALID,0.896897,VALID,23.9845,VALID,208,VALID,0.324219,
2012-11-14, 01:49:05,VALID,1008.44,VALID,0,VALID,104,VALID,1.00901,VALID,23.9845,VALID,208,VALID,0.945703,
2012-11-14, 01:50:05,VALID,1008.45,VALID,0,VALID,104,VALID,0.896897,VALID,23.965,VALID,203,VALID,0.908594,
2012-11-14, 01:51:05,VALID,1008.43,VALID,0,VALID,104,VALID,0.896897,VALID,23.965,VALID,184,VALID,0.655859,
2012-11-14, 01:52:05,VALID,1008.39,VALID,0,VALID,104,VALID,0.896897,VALID,23.9455,VALID,196,VALID,0.850781,
2012-11-14, 01:53:05,VALID,1008.44,VALID,0,VALID,104,VALID,1.00901,VALID,23.9455,VALID,202,VALID,0.573828,
2012-11-14, 01:54:05,VALID,1008.46,VALID,0,VALID,104,VALID,1.00901,VALID,23.9845,VALID,227,VALID,1.05,
2012-11-14, 01:55:05,VALID,1008.45,VALID,0,VALID,104,VALID,0.896897,VALID,23.9455,VALID,194,VALID,1.31602,
2012-11-14, 01:56:05,VALID,1008.41,VALID,0,VALID,104,VALID,1.00901,VALID,23.9455,VALID,216,VALID,0.528906,
2012-11-14, 01:57:05,VALID,1008.41,VALID,0,VALID,104,VALID,0.896897,VALID,23.9455,VALID,208,VALID,1.2875,
2012-11-14, 01:58:05,VALID,1008.36,VALID,0,VALID,104,VALID,0.896897,VALID,23.9455,VALID,191,VALID,0.682422,
2012-11-14, 01:59:05,VALID,1008.35,VALID,0,VALID,104,VALID,0.896897,VALID,23.9455,VALID,198,VALID,0.895703,
2012-11-14, 02:00:05,VALID,1008.33,VALID,0,VALID,104,VALID,0.896897,VALID,23.9047,VALID,194,VALID,1.33438,
2012-11-14, 02:01:05,VALID,1008.31,VALID,0,VALID,104,VALID,0.896897,VALID,23.8871,VALID,193,VALID,1.29727,
2012-11-14, 02:02:05,VALID,1008.3,VALID,0,VALID,104,VALID,0.896897,VALID,23.9065,VALID,188,VALID,0.775,
2012-11-14, 02:03:05,VALID,1008.28,VALID,0,VALID,104,VALID,0.896897,VALID,23.9473,VALID,204,VALID,0.612109,
2012-11-14, 02:04:05,VALID,1008.23,VALID,0,VALID,104,VALID,0.896897,VALID,23.9455,VALID,204,VALID,0.0949219,
2012-11-14, 02:05:05,VALID,1008.22,VALID,0,VALID,104,VALID,0.896897,VALID,23.9473,VALID,209,VALID,0.650391,
2012-11-14, 02:06:05,VALID,1008.21,VALID,0,VALID,104,VALID,0.896897,VALID,23.926,VALID,202,VALID,0.946875,
2012-11-14, 02:07:05,VALID,1008.18,VALID,0,VALID,104,VALID,0.896897,VALID,23.926,VALID,228,VALID,0.323438,
2012-11-14, 02:08:05,VALID,1008.17,VALID,0,VALID,104,VALID,0.896897,VALID,23.9455,VALID,212,VALID,1.03008,
2012-11-14, 02:09:05,VALID,1008.18,VALID,0,VALID,104,VALID,0.896897,VALID,23.926,VALID,199,VALID,1.22422,
2012-11-14, 02:10:05,VALID,1008.17,VALID,0,VALID,104,VALID,0.896897,VALID,23.926,VALID,215,VALID,0.894922,
2012-11-14, 02:11:05,VALID,1008.12,VALID,0,VALID,104,VALID,0.896897,VALID,23.926,VALID,234,VALID,1.12578,
2012-11-14, 02:12:05,VALID,1008.11,VALID,0,VALID,104,VALID,1.00901,VALID,23.9065,VALID,185,VALID,1.05313,
2012-11-14, 02:13:05,VALID,1008.12,VALID,0,VALID,104,VALID,0.896897,VALID,23.8676,VALID,183,VALID,1.34687,
2012-11-14, 02:14:05,VALID,1008.11,VALID,0,VALID,104,VALID,0.896897,VALID,23.8676,VALID,200,VALID,0.903125,
2012-11-14, 02:15:05,VALID,1008.1,VALID,0,VALID,104,VALID,1.00901,VALID,23.8871,VALID,208,VALID,0.860547,
2012-11-14, 02:16:05,VALID,1008.1,VALID,0,VALID,104,VALID,1.00901,VALID,23.9065,VALID,211,VALID,0.455469,
2012-11-14, 02:17:05,VALID,1008.09,VALID,0,VALID,104,VALID,0.896897,VALID,23.9278,VALID,211,VALID,0.534375,
2012-11-14, 02:18:05,VALID,1008.07,VALID,0,VALID,104,VALID,0.896897,VALID,23.8871,VALID,211,VALID,0.330078,
2012-11-14, 02:19:05,VALID,1008.07,VALID,0,VALID,104,VALID,1.00901,VALID,23.8852,VALID,211,VALID,0.615625,
2012-11-14, 02:20:05,VALID,1008.07,VALID,0.5,VALID,104,VALID,0.896897,VALID,23.9065,VALID,211,VALID,0.472656,
2012-11-14, 02:21:05,VALID,1008.05,VALID,0,VALID,104,VALID,1.00901,VALID,23.9084,VALID,226,VALID,0.733594,
2012-11-14, 02:22:05,VALID,1008.07,VALID,0,VALID,104,VALID,1.00901,VALID,23.9065,VALID,199,VALID,0.703906,
2012-11-14, 02:23:05,VALID,1008.08,VALID,0,VALID,104,VALID,1.00901,VALID,23.9065,VALID,199,VALID,0.00742187,
2012-11-14, 02:24:05,VALID,1008.07,VALID,0,VALID,104,VALID,1.00901,VALID,23.9278,VALID,199,VALID,0.43125,
2012-11-14, 02:25:05,VALID,1008.08,VALID,0,VALID,104,VALID,0.896897,VALID,23.8676,VALID,183,VALID,1.32539,
2012-11-14, 02:26:05,VALID,1008.09,VALID,0,VALID,104,VALID,1.00901,VALID,23.8871,VALID,192,VALID,0.532031,
2012-11-14, 02:27:05,VALID,1008.06,VALID,0,VALID,104,VALID,1.00901,VALID,23.8889,VALID,223,VALID,1.04609,
2012-11-14, 02:28:05,VALID,1008.09,VALID,0,VALID,104,VALID,1.00901,VALID,23.8286,VALID,236,VALID,1.29883,
2012-11-14, 02:29:05,VALID,1008.09,VALID,0,VALID,104,VALID,1.00901,VALID,23.7896,VALID,201,VALID,1.19375,
2012-11-14, 02:30:05,VALID,1008.09,VALID,0,VALID,104,VALID,1.00901,VALID,23.7896,VALID,229,VALID,1.15391,
2012-11-14, 02:31:05,VALID,1008.09,VALID,0,VALID,104,VALID,1.00901,VALID,23.8304,VALID,232,VALID,0.558984,
2012-11-14, 02:32:05,VALID,1008.1,VALID,0,VALID,104,VALID,1.00901,VALID,23.8091,VALID,223,VALID,0.342578,
2012-11-14, 02:33:05,VALID,1008.11,VALID,0,VALID,104,VALID,1.00901,VALID,23.8286,VALID,222,VALID,0.626172,
2012-11-14, 02:34:05,VALID,1008.09,VALID,0,VALID,104,VALID,1.00901,VALID,23.8091,VALID,215,VALID,0.771484,
2012-11-14, 02:35:05,VALID,1008.1,VALID,0.5,VALID,104,VALID,1.00901,VALID,23.8091,VALID,217,VALID,0.993359,
2012-11-14, 02:36:05,VALID,1008.06,VALID,0,VALID,104,VALID,1.00901,VALID,23.8304,VALID,205,VALID,0.788281,
2012-11-14, 02:37:05,VALID,1008.05,VALID,0,VALID,104,VALID,1.00901,VALID,23.8286,VALID,216,VALID,1.07773,
2012-11-14, 02:38:05,VALID,1008.05,VALID,0,VALID,104,VALID,1.00901,VALID,23.8109,VALID,216,VALID,0.589063,
2012-11-14, 02:39:05,VALID,1008.06,VALID,0,VALID,104,VALID,1.00901,VALID,23.7896,VALID,243,VALID,1.0125,
2012-11-14, 02:40:05,VALID,1008.02,VALID,0,VALID,104,VALID,1.00901,VALID,23.8286,VALID,215,VALID,0.287109,
2012-11-14, 02:41:05,VALID,1008.03,VALID,0,VALID,104,VALID,1.00901,VALID,23.8286,VALID,215,VALID,0.124219,
2012-11-14, 02:42:05,VALID,1008.01,VALID,0,VALID,104,VALID,1.00901,VALID,23.8499,VALID,216,VALID,0.3125,
2012-11-14, 02:43:05,VALID,1008.01,VALID,0,VALID,104,VALID,1.00901,VALID,23.8481,VALID,216,VALID,0,
2012-11-14, 02:44:05,VALID,1008,VALID,0,VALID,104,VALID,1.00901,VALID,23.8481,VALID,216,VALID,0,
2012-11-14, 02:45:05,VALID,1008.01,VALID,0,VALID,104,VALID,1.00901,VALID,23.8481,VALID,216,VALID,0.213281,
2012-11-14, 02:46:05,VALID,1007.97,VALID,0,VALID,104,VALID,1.00901,VALID,23.8091,VALID,238,VALID,0.966016,
2012-11-14, 02:47:05,VALID,1007.95,VALID,0,VALID,104,VALID,1.00901,VALID,23.8091,VALID,242,VALID,0.317187,
2012-11-14, 02:48:05,VALID,1007.94,VALID,0,VALID,104,VALID,1.12112,VALID,23.8091,VALID,242,VALID,0.317187,
2012-11-14, 02:49:05,VALID,1007.92,VALID,0,VALID,104,VALID,1.00901,VALID,23.8091,VALID,243,VALID,0.575391,
2012-11-14, 02:50:05,VALID,1007.91,VALID,0,VALID,104,VALID,1.00901,VALID,23.7896,VALID,234,VALID,0.430078,
2012-11-14, 02:51:05,VALID,1007.91,VALID,0,VALID,104,VALID,1.12112,VALID,23.7896,VALID,236,VALID,0.646875,
2012-11-14, 02:52:05,VALID,1007.93,VALID,0,VALID,104,VALID,1.00901,VALID,23.7896,VALID,225,VALID,0.572656,
2012-11-14, 02:53:05,VALID,1007.95,VALID,0,VALID,104,VALID,1.00901,VALID,23.7896,VALID,224,VALID,0.507031,
2012-11-14, 02:54:05,VALID,1007.96,VALID,0,VALID,104,VALID,1.00901,VALID,23.8304,VALID,224,VALID,0.258594,
2012-11-14, 02:55:05,VALID,1007.97,VALID,0,VALID,104,VALID,1.00901,VALID,23.8091,VALID,224,VALID,0.383984,
2012-11-14, 02:56:05,VALID,1007.99,VALID,0,VALID,104,VALID,1.00901,VALID,23.8091,VALID,211,VALID,0.107813,
2012-11-14, 02:57:05,VALID,1007.98,VALID,0,VALID,104,VALID,1.00901,VALID,23.8091,VALID,206,VALID,0.552344,
2012-11-14, 02:58:05,VALID,1008,VALID,0,VALID,104,VALID,1.00901,VALID,23.8286,VALID,206,VALID,0.414844,
2012-11-14, 02:59:05,VALID,1008.01,VALID,0,VALID,104,VALID,1.00901,VALID,23.8286,VALID,206,VALID,0.343359,
2012-11-14, 03:00:05,VALID,1008.01,VALID,0.5,VALID,104,VALID,1.00901,VALID,23.8286,VALID,206,VALID,0.280469,
2012-11-14, 03:01:05,VALID,1008,VALID,0,VALID,104,VALID,1.00901,VALID,23.8286,VALID,206,VALID,0,
2012-11-14, 03:02:05,VALID,1008.04,VALID,0,VALID,104,VALID,1.00901,VALID,23.8499,VALID,203,VALID,0.634375,
2012-11-14, 03:03:05,VALID,1008.06,VALID,0,VALID,104,VALID,1.00901,VALID,23.8481,VALID,193,VALID,0.576172,
2012-11-14, 03:04:05,VALID,1008.07,VALID,0,VALID,104,VALID,1.00901,VALID,23.8694,VALID,189,VALID,0.581641,
2012-11-14, 03:05:05,VALID,1008.09,VALID,0,VALID,104,VALID,1.12112,VALID,23.8481,VALID,161,VALID,0.749609,
2012-11-14, 03:06:05,VALID,1008.1,VALID,0,VALID,104,VALID,1.12112,VALID,23.8676,VALID,162,VALID,0.511328,
2012-11-14, 03:07:05,VALID,1008.12,VALID,0,VALID,104,VALID,1.00901,VALID,23.8676,VALID,166,VALID,0.422656,
2012-11-14, 03:08:05,VALID,1008.1,VALID,0,VALID,104,VALID,1.00901,VALID,23.8481,VALID,221,VALID,0.798047,
2012-11-14, 03:09:05,VALID,1008.11,VALID,0,VALID,104,VALID,1.00901,VALID,23.8871,VALID,215,VALID,0.561719,
2012-11-14, 03:10:05,VALID,1008.11,VALID,0,VALID,104,VALID,1.00901,VALID,23.8658,VALID,212,VALID,0.303125,
2012-11-14, 03:11:05,VALID,1008.16,VALID,0,VALID,104,VALID,1.00901,VALID,23.9065,VALID,212,VALID,0.000390625,
2012-11-14, 03:12:05,VALID,1008.13,VALID,0,VALID,104,VALID,1.12112,VALID,23.9065,VALID,188,VALID,0.732422,
2012-11-14, 03:13:05,VALID,1008.17,VALID,0,VALID,104,VALID,1.00901,VALID,23.8871,VALID,186,VALID,0.613672,
2012-11-14, 03:14:05,VALID,1008.16,VALID,0,VALID,104,VALID,1.00901,VALID,23.8871,VALID,186,VALID,0.341797,
2012-11-14, 03:15:05,VALID,1008.17,VALID,0,VALID,104,VALID,1.00901,VALID,23.8871,VALID,183,VALID,0.719922,
2012-11-14, 03:16:05,VALID,1008.14,VALID,0,VALID,104,VALID,1.00901,VALID,23.8871,VALID,194,VALID,0.737891,
2012-11-14, 03:17:05,VALID,1008.2,VALID,0,VALID,104,VALID,1.00901,VALID,23.8871,VALID,195,VALID,0.547266,
2012-11-14, 03:18:05,VALID,1008.18,VALID,0,VALID,104,VALID,1.00901,VALID,23.8871,VALID,174,VALID,0.450391,
2012-11-14, 03:19:05,VALID,1008.17,VALID,0,VALID,104,VALID,1.00901,VALID,23.8871,VALID,174,VALID,0.311328,
2012-11-14, 03:20:05,VALID,1008.16,VALID,0,VALID,104,VALID,1.00901,VALID,23.8871,VALID,174,VALID,0.495313,
2012-11-14, 03:21:05,VALID,1008.17,VALID,0,VALID,104,VALID,1.00901,VALID,23.8871,VALID,174,VALID,0.460156,
2012-11-14, 03:22:05,VALID,1008.22,VALID,0,VALID,104,VALID,1.00901,VALID,23.8871,VALID,173,VALID,0.678516,
2012-11-14, 03:23:05,VALID,1008.24,VALID,0,VALID,104,VALID,1.00901,VALID,23.8676,VALID,167,VALID,0.623047,
2012-11-14, 03:24:05,VALID,1008.25,VALID,0,VALID,104,VALID,1.00901,VALID,23.8676,VALID,167,VALID,0.4625,
2012-11-14, 03:25:05,VALID,1008.24,VALID,0,VALID,104,VALID,1.00901,VALID,23.8676,VALID,167,VALID,0.770312,
2012-11-14, 03:26:05,VALID,1008.25,VALID,0,VALID,104,VALID,1.00901,VALID,23.8889,VALID,167,VALID,0.605078,
2012-11-14, 03:27:05,VALID,1008.24,VALID,0,VALID,104,VALID,1.00901,VALID,23.8676,VALID,167,VALID,0.296094,
2012-11-14, 03:28:05,VALID,1008.25,VALID,0,VALID,104,VALID,1.12112,VALID,23.8871,VALID,167,VALID,0.234766,
2012-11-14, 03:29:05,VALID,1008.24,VALID,0,VALID,104,VALID,1.00901,VALID,23.8871,VALID,167,VALID,0.187109,
2012-11-14, 03:30:05,VALID,1008.21,VALID,0,VALID,104,VALID,1.00901,VALID,23.8871,VALID,167,VALID,0,
2012-11-14, 03:31:05,VALID,1008.21,VALID,0,VALID,104,VALID,1.00901,VALID,23.8481,VALID,162,VALID,0.55,
2012-11-14, 03:32:05,VALID,1008.21,VALID,0,VALID,104,VALID,1.00901,VALID,23.8676,VALID,160,VALID,0.383984,
2012-11-14, 03:33:05,VALID,1008.26,VALID,0,VALID,104,VALID,1.12112,VALID,23.8676,VALID,161,VALID,0.564062,
2012-11-14, 03:34:05,VALID,1008.3,VALID,0,VALID,104,VALID,1.00901,VALID,23.8481,VALID,166,VALID,0.503516,
2012-11-14, 03:35:05,VALID,1008.3,VALID,0,VALID,104,VALID,1.00901,VALID,23.8481,VALID,169,VALID,0.665625,
2012-11-14, 03:36:05,VALID,1008.29,VALID,0,VALID,104,VALID,1.00901,VALID,23.8676,VALID,169,VALID,0.557422,
2012-11-14, 03:37:05,VALID,1008.33,VALID,0,VALID,104,VALID,1.00901,VALID,23.8676,VALID,169,VALID,0.572266,
2012-11-14, 03:38:05,VALID,1008.37,VALID,0,VALID,104,VALID,1.00901,VALID,23.8481,VALID,157,VALID,1.08984,
2012-11-14, 03:39:05,VALID,1008.37,VALID,0,VALID,104,VALID,1.00901,VALID,23.8304,VALID,175,VALID,1.28086,